Weather History for Tampa, FL

Change the Weather History Date:

Saturday, November 3, 2012

  Actual Average Record
Temperature  
Mean Temperature 70 °F 72 °F  
Max Temperature 79 °F 81 °F 88 °F (1961)
Min Temperature 60 °F 63 °F 37 °F (1963)
Degree Days  
Heating Degree Days 0 1  
Month to date heating degree days 0 1  
Since 1 July heating degree days 6 5  
Cooling Degree Days 5 7  
Month to date cooling degree days 11 23  
Year to date cooling degree days 3806 3389  
Growing Degree Days 20 (Base 50)    
Moisture  
Dew Point 63 °F    
Average Humidity 78    
Maximum Humidity 97    
Minimum Humidity 58    
Precipitation  
Precipitation 0.00 in 0.05 in 1.92 in (1987)
Month to date precipitation 0.01 0.15  
Year to date precipitation 53.64 42.43  
Sea Level Pressure  
Sea Level Pressure 30.10 in    
Wind  
Wind Speed 3 mph (WSW)    
Max Wind Speed 10 mph    
Max Gust Speed 17 mph    
Visibility 9 miles    
Events      
T = Trace of Precipitation, MM = Missing Value Source: NWS Daily Summary

Daily Weather History Graph

Daily Weather History Graph

Search for Another Location

Airport:

Trip Planner

Search our weather history database for the weather conditions in past years. The results will help you decide how hot, cold, wet, or windy it might be!

Date:

Astronomy

Nov. 03, 2012 Rise Set
Actual Time 7:43 AM EDT 6:43 PM EDT
Civil Twilight 7:18 AM EDT 7:08 PM EDT
Nautical Twilight 6:50 AM EDT 7:36 PM EDT
Astronomical Twilight 6:23 AM EDT 8:03 PM EDT
Moon 10:31 PM EDT 11:37 AM EDT
Length of Visible Light 11h 49m
Length of Day
11h 00m
Waning Gibbous, 80% of the Moon is Illuminated
Nov 3
Waning Gibbous
Nov 6
Last Quarter
Nov 13
New
Nov 20
First Quarter
Nov 28
Full

Hourly Weather History & Observations

Time (EDT) Temp. Dew Point Humidity Pressure Visibility Wind Dir Wind Speed Gust Speed Precip Events Conditions
12:53 AM 64.9 °F 61.0 °F 87% 30.10 in 10.0 mi Calm Calm - N/A   Clear
1:53 AM 63.0 °F 59.0 °F 87% 30.09 in 10.0 mi Calm Calm - N/A   Clear
2:53 AM 62.1 °F 59.0 °F 90% 30.08 in 10.0 mi Calm Calm - N/A   Clear
3:53 AM 62.1 °F 60.1 °F 93% 30.08 in 10.0 mi Calm Calm - N/A   Clear
4:53 AM 61.0 °F 59.0 °F 93% 30.08 in 9.0 mi Calm Calm - N/A   Clear
5:53 AM 61.0 °F 57.9 °F 90% 30.09 in 9.0 mi Calm Calm - N/A   Clear
6:53 AM 62.1 °F 59.0 °F 90% 30.11 in 10.0 mi Calm Calm - N/A   Clear
7:53 AM 61.0 °F 59.0 °F 93% 30.12 in 10.0 mi Calm Calm - N/A   Scattered Clouds
8:49 AM 66.2 °F 60.8 °F 83% 30.14 in 10.0 mi Calm Calm - N/A   Mostly Cloudy
8:53 AM 66.0 °F 61.0 °F 84% 30.14 in 10.0 mi Calm Calm - N/A   Mostly Cloudy
8:59 AM 66.2 °F 60.8 °F 83% 30.14 in 10.0 mi Calm Calm - N/A   Scattered Clouds
9:53 AM 71.1 °F 64.9 °F 81% 30.15 in 10.0 mi South 3.5 mph - N/A   Partly Cloudy
10:53 AM 73.0 °F 64.0 °F 73% 30.15 in 10.0 mi WSW 4.6 mph - N/A   Scattered Clouds
11:53 AM 75.0 °F 64.9 °F 71% 30.14 in 10.0 mi WSW 6.9 mph - N/A   Partly Cloudy
12:53 PM 77.0 °F 64.9 °F 66% 30.13 in 10.0 mi SW 6.9 mph - N/A   Scattered Clouds
1:53 PM 77.0 °F 64.9 °F 66% 30.10 in 10.0 mi SW 8.1 mph - N/A   Scattered Clouds
2:53 PM 78.1 °F 64.9 °F 64% 30.08 in 10.0 mi WSW 6.9 mph - N/A   Scattered Clouds
3:53 PM 79.0 °F 64.0 °F 60% 30.07 in 10.0 mi West 8.1 mph 17.3 mph N/A   Scattered Clouds
4:53 PM 78.1 °F 63.0 °F 60% 30.07 in 10.0 mi West 5.8 mph - N/A   Partly Cloudy
5:53 PM 77.0 °F 64.0 °F 64% 30.07 in 10.0 mi WNW 6.9 mph - N/A   Partly Cloudy
6:53 PM 75.0 °F 63.0 °F 66% 30.08 in 10.0 mi WNW 6.9 mph - N/A   Partly Cloudy
7:53 PM 72.0 °F 64.9 °F 78% 30.09 in 10.0 mi West 4.6 mph - N/A   Clear
8:53 PM 71.1 °F 66.0 °F 84% 30.10 in 9.0 mi Calm Calm - N/A   Clear
9:53 PM 69.1 °F 66.0 °F 90% 30.11 in 7.0 mi Calm Calm - N/A   Clear
10:53 PM 69.1 °F 66.0 °F 90% 30.11 in 5.0 mi Calm Calm - N/A   Clear
11:53 PM 68.0 °F 66.9 °F 96% 30.11 in 4.0 mi Calm Calm - N/A   Clear